,,,PA_Meas_PMT16A,,PR_Meas_QMR101_102,,RH_Meas_QMH101,,SR_Meas_QMS101,,TA_Meas_QMH101,,GenWind,,GenWind,
date,time,status,PA,status,PR,status,RH,status,SR,status,TA,status,DirAvg,status,SpdAvg,
2008-04-04, 00:00:04,VALID,1010.02,VALID,0,VALID,93.8502,VALID,0,VALID,23.7914,VALID,165,VALID,0.277344,
2008-04-04, 00:01:04,VALID,1009.99,VALID,0,VALID,93.7815,VALID,0,VALID,23.8304,VALID,165,VALID,0.210547,
2008-04-04, 00:02:04,VALID,1010.01,VALID,0,VALID,93.6671,VALID,0,VALID,23.8304,VALID,165,VALID,0.238672,
2008-04-04, 00:03:04,VALID,1009.99,VALID,0,VALID,93.5527,VALID,0,VALID,23.8304,VALID,165,VALID,0.131641,
2008-04-04, 00:04:04,VALID,1009.98,VALID,0,VALID,93.4765,VALID,0,VALID,23.8499,VALID,165,VALID,0.174609,
2008-04-04, 00:05:04,VALID,1009.95,VALID,0,VALID,93.2477,VALID,0.105969,VALID,23.8694,VALID,165,VALID,0.00195313,
2008-04-04, 00:06:04,VALID,1009.94,VALID,0,VALID,93.0876,VALID,0,VALID,23.8694,VALID,165,VALID,0,
2008-04-04, 00:07:04,VALID,1009.91,VALID,0,VALID,93.1867,VALID,0.105969,VALID,23.8889,VALID,165,VALID,0,
2008-04-04, 00:08:04,VALID,1009.88,VALID,0,VALID,93.2096,VALID,0,VALID,23.8481,VALID,165,VALID,0,
2008-04-04, 00:09:04,VALID,1009.87,VALID,0,VALID,93.2172,VALID,0.105969,VALID,23.8694,VALID,165,VALID,0.175391,
2008-04-04, 00:10:04,VALID,1009.86,VALID,0,VALID,93.2858,VALID,0.105969,VALID,23.8481,VALID,165,VALID,0,
2008-04-04, 00:11:04,VALID,1009.83,VALID,0,VALID,93.3545,VALID,0.105969,VALID,23.8304,VALID,165,VALID,0,
2008-04-04, 00:12:04,VALID,1009.82,VALID,0,VALID,93.3773,VALID,0,VALID,23.7914,VALID,165,VALID,0,
2008-04-04, 00:13:04,VALID,1009.82,VALID,0,VALID,93.4079,VALID,0.105969,VALID,23.7701,VALID,165,VALID,0,
2008-04-04, 00:14:04,VALID,1009.79,VALID,0,VALID,93.4612,VALID,0.105969,VALID,23.7507,VALID,165,VALID,0,
2008-04-04, 00:15:04,VALID,1009.8,VALID,0,VALID,93.5527,VALID,0.105969,VALID,23.7525,VALID,165,VALID,0,
2008-04-04, 00:16:04,VALID,1009.8,VALID,0,VALID,93.5756,VALID,0,VALID,23.7312,VALID,165,VALID,0,
2008-04-04, 00:17:04,VALID,1009.77,VALID,0,VALID,93.6137,VALID,0.105969,VALID,23.733,VALID,165,VALID,0.15,
2008-04-04, 00:18:04,VALID,1009.8,VALID,0,VALID,93.568,VALID,0.105969,VALID,23.7312,VALID,165,VALID,0.0699219,
2008-04-04, 00:19:04,VALID,1009.78,VALID,0,VALID,93.5451,VALID,0.105969,VALID,23.7135,VALID,165,VALID,0,
2008-04-04, 00:20:04,VALID,1009.79,VALID,0,VALID,93.5756,VALID,0.105969,VALID,23.6922,VALID,165,VALID,0,
2008-04-04, 00:21:04,VALID,1009.82,VALID,0,VALID,93.6214,VALID,0.105969,VALID,23.6727,VALID,165,VALID,0,
2008-04-04, 00:22:04,VALID,1009.85,VALID,0,VALID,93.7815,VALID,0.105969,VALID,23.6727,VALID,165,VALID,0.0558594,
2008-04-04, 00:23:04,VALID,1009.84,VALID,0,VALID,93.8349,VALID,0.105969,VALID,23.6745,VALID,165,VALID,0.362891,
2008-04-04, 00:24:04,VALID,1009.84,VALID,0,VALID,93.8044,VALID,0.105969,VALID,23.6532,VALID,171,VALID,0.461719,
2008-04-04, 00:25:04,VALID,1009.83,VALID,0,VALID,93.8044,VALID,0,VALID,23.694,VALID,171,VALID,0.519531,
2008-04-04, 00:26:04,VALID,1009.79,VALID,0,VALID,93.6748,VALID,0,VALID,23.6922,VALID,171,VALID,0.443359,
2008-04-04, 00:27:04,VALID,1009.76,VALID,0,VALID,93.5527,VALID,0,VALID,23.7135,VALID,171,VALID,0.410547,
2008-04-04, 00:28:04,VALID,1009.74,VALID,0,VALID,93.568,VALID,0,VALID,23.7348,VALID,171,VALID,0.452344,
2008-04-04, 00:29:04,VALID,1009.73,VALID,0,VALID,93.629,VALID,0,VALID,23.7135,VALID,171,VALID,0.382813,
2008-04-04, 00:30:04,VALID,1009.72,VALID,0,VALID,93.6519,VALID,0,VALID,23.7135,VALID,171,VALID,0.301172,
2008-04-04, 00:31:04,VALID,1009.71,VALID,0,VALID,93.6824,VALID,0,VALID,23.7153,VALID,171,VALID,0.308984,
2008-04-04, 00:32:04,VALID,1009.7,VALID,0,VALID,93.6595,VALID,0,VALID,23.694,VALID,171,VALID,0.311719,
2008-04-04, 00:33:04,VALID,1009.73,VALID,0,VALID,93.6214,VALID,0,VALID,23.6958,VALID,171,VALID,0.324219,
2008-04-04, 00:34:04,VALID,1009.7,VALID,0,VALID,93.6366,VALID,0,VALID,23.655,VALID,171,VALID,0.390625,
2008-04-04, 00:35:04,VALID,1009.7,VALID,0,VALID,93.7815,VALID,0,VALID,23.655,VALID,171,VALID,0.416406,
2008-04-04, 00:36:04,VALID,1009.7,VALID,0,VALID,93.8883,VALID,0,VALID,23.6356,VALID,171,VALID,0.423047,
2008-04-04, 00:37:04,VALID,1009.7,VALID,0,VALID,93.9569,VALID,0,VALID,23.6373,VALID,173,VALID,0.403906,
2008-04-04, 00:38:04,VALID,1009.68,VALID,0,VALID,93.8959,VALID,0,VALID,23.6161,VALID,174,VALID,0.288672,
2008-04-04, 00:39:04,VALID,1009.69,VALID,0,VALID,93.9112,VALID,0,VALID,23.6373,VALID,174,VALID,0.293359,
2008-04-04, 00:40:04,VALID,1009.69,VALID,0,VALID,93.9493,VALID,0,VALID,23.6179,VALID,192,VALID,0.273438,
2008-04-04, 00:41:04,VALID,1009.7,VALID,0,VALID,93.8959,VALID,0,VALID,23.6568,VALID,192,VALID,0.287109,
2008-04-04, 00:42:04,VALID,1009.68,VALID,0,VALID,93.9264,VALID,0,VALID,23.6161,VALID,192,VALID,0.148438,
2008-04-04, 00:43:04,VALID,1009.7,VALID,0,VALID,93.8959,VALID,0,VALID,23.6373,VALID,192,VALID,0.226172,
2008-04-04, 00:44:04,VALID,1009.71,VALID,0,VALID,93.8807,VALID,0,VALID,23.6568,VALID,192,VALID,0.245703,
2008-04-04, 00:45:04,VALID,1009.7,VALID,0,VALID,93.7663,VALID,0,VALID,23.6568,VALID,192,VALID,0.238672,
2008-04-04, 00:46:04,VALID,1009.7,VALID,0,VALID,93.6595,VALID,0,VALID,23.6356,VALID,192,VALID,0,
2008-04-04, 00:47:04,VALID,1009.68,VALID,0,VALID,93.7663,VALID,0,VALID,23.6568,VALID,192,VALID,0.0125,
2008-04-04, 00:48:04,VALID,1009.66,VALID,0,VALID,93.7205,VALID,0,VALID,23.6568,VALID,194,VALID,0.244141,
2008-04-04, 00:49:04,VALID,1009.63,VALID,0,VALID,93.6366,VALID,0,VALID,23.6568,VALID,195,VALID,0.182422,
2008-04-04, 00:50:04,VALID,1009.64,VALID,0,VALID,93.507,VALID,0,VALID,23.7153,VALID,195,VALID,0.295703,
2008-04-04, 00:51:04,VALID,1009.62,VALID,0,VALID,93.1257,VALID,0,VALID,23.6958,VALID,191,VALID,0.353906,
2008-04-04, 00:52:04,VALID,1009.62,VALID,0,VALID,92.8969,VALID,0,VALID,23.7153,VALID,172,VALID,0.444922,
2008-04-04, 00:53:04,VALID,1009.56,VALID,0,VALID,92.6682,VALID,0,VALID,23.7348,VALID,158,VALID,0.260547,
2008-04-04, 00:54:04,VALID,1009.58,VALID,0,VALID,92.5995,VALID,0,VALID,23.7348,VALID,112,VALID,0.424219,
2008-04-04, 00:55:04,VALID,1009.52,VALID,0,VALID,92.6224,VALID,0,VALID,23.733,VALID,98,VALID,0.598437,
2008-04-04, 00:56:04,VALID,1009.49,VALID,0,VALID,92.5538,VALID,0,VALID,23.7543,VALID,87,VALID,0.558984,
2008-04-04, 00:57:04,VALID,1009.47,VALID,0,VALID,92.4013,VALID,0,VALID,23.7525,VALID,86,VALID,0.514063,
2008-04-04, 00:58:04,VALID,1009.44,VALID,0,VALID,92.3021,VALID,0,VALID,23.7738,VALID,86,VALID,0.502344,
2008-04-04, 00:59:04,VALID,1009.41,VALID,0,VALID,92.1572,VALID,0,VALID,23.7738,VALID,85,VALID,0.454297,
2008-04-04, 01:00:04,VALID,1009.4,VALID,0,VALID,92.0581,VALID,0,VALID,23.7543,VALID,84,VALID,0.479688,
2008-04-04, 01:01:04,VALID,1009.4,VALID,0,VALID,91.9208,VALID,0,VALID,23.7543,VALID,101,VALID,0.550781,
2008-04-04, 01:02:04,VALID,1009.36,VALID,0,VALID,91.9056,VALID,0,VALID,23.7543,VALID,79,VALID,0.464453,
2008-04-04, 01:03:04,VALID,1009.37,VALID,0,VALID,91.8293,VALID,0,VALID,23.7348,VALID,90,VALID,0.540234,
2008-04-04, 01:04:04,VALID,1009.36,VALID,0,VALID,91.9361,VALID,0,VALID,23.7153,VALID,85,VALID,0.533984,
2008-04-04, 01:05:04,VALID,1009.38,VALID,0,VALID,91.9437,VALID,0,VALID,23.7153,VALID,83,VALID,0.5375,
2008-04-04, 01:06:04,VALID,1009.39,VALID,0,VALID,92.0276,VALID,0,VALID,23.6958,VALID,85,VALID,0.387109,
2008-04-04, 01:07:04,VALID,1009.42,VALID,0,VALID,92.1191,VALID,0,VALID,23.7348,VALID,80,VALID,0.629297,
2008-04-04, 01:08:04,VALID,1009.43,VALID,0,VALID,92.0276,VALID,0,VALID,23.7153,VALID,76,VALID,0.432813,
2008-04-04, 01:09:04,VALID,1009.45,VALID,0,VALID,92.0962,VALID,0,VALID,23.655,VALID,71,VALID,0.514063,
2008-04-04, 01:10:04,VALID,1009.44,VALID,0,VALID,92.1954,VALID,0,VALID,23.6568,VALID,71,VALID,0.417969,
2008-04-04, 01:11:04,VALID,1009.46,VALID,0,VALID,92.2869,VALID,0,VALID,23.6161,VALID,71,VALID,0.260547,
2008-04-04, 01:12:04,VALID,1009.44,VALID,0,VALID,92.4241,VALID,0.105969,VALID,23.6161,VALID,64,VALID,0.535156,
2008-04-04, 01:13:04,VALID,1009.44,VALID,0,VALID,92.5461,VALID,0.105969,VALID,23.5771,VALID,50,VALID,0.464063,
2008-04-04, 01:14:04,VALID,1009.41,VALID,0,VALID,92.5995,VALID,0.105969,VALID,23.5576,VALID,48,VALID,0.407422,
2008-04-04, 01:15:04,VALID,1009.39,VALID,0,VALID,92.7215,VALID,0,VALID,23.5381,VALID,52,VALID,0.5625,
2008-04-04, 01:16:04,VALID,1009.4,VALID,0,VALID,92.7597,VALID,0,VALID,23.4797,VALID,53,VALID,0.354297,
2008-04-04, 01:17:04,VALID,1009.38,VALID,0,VALID,92.9656,VALID,0.105969,VALID,23.4212,VALID,46,VALID,0.417188,
2008-04-04, 01:18:04,VALID,1009.36,VALID,0,VALID,93.2248,VALID,0,VALID,23.3628,VALID,43,VALID,0.401563,
2008-04-04, 01:19:04,VALID,1009.34,VALID,0,VALID,93.4079,VALID,0.105969,VALID,23.3043,VALID,23,VALID,0.364062,
2008-04-04, 01:20:04,VALID,1009.32,VALID,0,VALID,93.7053,VALID,0,VALID,23.2441,VALID,23,VALID,0.364453,
2008-04-04, 01:21:04,VALID,1009.32,VALID,0,VALID,93.9569,VALID,0,VALID,23.2264,VALID,23,VALID,0.342969,
2008-04-04, 01:22:04,VALID,1009.3,VALID,0,VALID,94.2086,VALID,0.105969,VALID,23.1874,VALID,23,VALID,0.285937,
2008-04-04, 01:23:04,VALID,1009.3,VALID,0,VALID,94.3458,VALID,0,VALID,23.1874,VALID,23,VALID,0.175781,
2008-04-04, 01:24:04,VALID,1009.29,VALID,0,VALID,94.3458,VALID,0.105969,VALID,23.1662,VALID,23,VALID,0.138672,
2008-04-04, 01:25:04,VALID,1009.29,VALID,0,VALID,94.3534,VALID,0.105969,VALID,23.1467,VALID,23,VALID,0.225391,
2008-04-04, 01:26:04,VALID,1009.24,VALID,0,VALID,94.4068,VALID,0,VALID,23.1502,VALID,23,VALID,0.238281,
2008-04-04, 01:27:04,VALID,1009.25,VALID,0,VALID,94.4526,VALID,0,VALID,23.129,VALID,23,VALID,0.146875,
2008-04-04, 01:28:04,VALID,1009.23,VALID,0,VALID,94.4755,VALID,0,VALID,23.129,VALID,23,VALID,0.0164062,
2008-04-04, 01:29:04,VALID,1009.22,VALID,0,VALID,94.4907,VALID,0,VALID,23.1307,VALID,23,VALID,0,
2008-04-04, 01:30:04,VALID,1009.21,VALID,0,VALID,94.4526,VALID,0,VALID,23.1307,VALID,23,VALID,0,
2008-04-04, 01:31:04,VALID,1009.19,VALID,0,VALID,94.2696,VALID,0,VALID,23.0918,VALID,23,VALID,0,
2008-04-04, 01:32:04,VALID,1009.19,VALID,0,VALID,94.3534,VALID,0,VALID,23.0511,VALID,23,VALID,0.238281,
2008-04-04, 01:33:04,VALID,1009.18,VALID,0,VALID,94.3458,VALID,0,VALID,23.0316,VALID,23,VALID,0.146094,
2008-04-04, 01:34:04,VALID,1009.18,VALID,0,VALID,94.4068,VALID,0,VALID,22.9926,VALID,23,VALID,0.217187,
2008-04-04, 01:35:04,VALID,1009.17,VALID,0,VALID,94.5975,VALID,0,VALID,23.0138,VALID,23,VALID,0.150781,
2008-04-04, 01:36:04,VALID,1009.18,VALID,0,VALID,94.7042,VALID,0,VALID,22.9926,VALID,23,VALID,0.317187,
2008-04-04, 01:37:04,VALID,1009.19,VALID,0,VALID,94.811,VALID,0,VALID,23.0138,VALID,23,VALID,0.177344,
2008-04-04, 01:38:04,VALID,1009.2,VALID,0,VALID,94.8949,VALID,0,VALID,22.9749,VALID,23,VALID,0.104297,
2008-04-04, 01:39:04,VALID,1009.17,VALID,0,VALID,94.9254,VALID,0,VALID,22.9536,VALID,23,VALID,0.0300781,
2008-04-04, 01:40:04,VALID,1009.16,VALID,0,VALID,94.9483,VALID,0,VALID,22.9536,VALID,23,VALID,0,
2008-04-04, 01:41:04,VALID,1009.15,VALID,0,VALID,95.0016,VALID,0,VALID,22.9342,VALID,23,VALID,0,
2008-04-04, 01:42:04,VALID,1009.17,VALID,0,VALID,95.0245,VALID,0,VALID,22.9554,VALID,23,VALID,0,
2008-04-04, 01:43:04,VALID,1009.15,VALID,0,VALID,95.0093,VALID,0,VALID,22.9164,VALID,23,VALID,0,
2008-04-04, 01:44:04,VALID,1009.15,VALID,0,VALID,94.872,VALID,0,VALID,22.835,VALID,23,VALID,0.0574219,
2008-04-04, 01:45:04,VALID,1009.15,VALID,0,VALID,94.872,VALID,0,VALID,22.7978,VALID,23,VALID,0.0132813,
2008-04-04, 01:46:04,VALID,1009.14,VALID,0,VALID,94.811,VALID,0,VALID,22.7995,VALID,23,VALID,0,
2008-04-04, 01:47:04,VALID,1009.14,VALID,0,VALID,94.7729,VALID,0,VALID,22.7588,VALID,23,VALID,0,
2008-04-04, 01:48:04,VALID,1009.1,VALID,0,VALID,94.7805,VALID,0,VALID,22.7394,VALID,23,VALID,0,
2008-04-04, 01:49:04,VALID,1009.08,VALID,0,VALID,94.9711,VALID,0,VALID,22.7004,VALID,23,VALID,0,
2008-04-04, 01:50:04,VALID,1009.04,VALID,0,VALID,95.1999,VALID,0,VALID,22.7394,VALID,23,VALID,0,
2008-04-04, 01:51:04,VALID,1009.03,VALID,0,VALID,95.4058,VALID,0,VALID,22.819,VALID,36,VALID,0.572266,
2008-04-04, 01:52:04,VALID,1008.96,VALID,0,VALID,95.4897,VALID,0,VALID,22.8173,VALID,37,VALID,0.507031,
2008-04-04, 01:53:04,VALID,1008.96,VALID,0,VALID,95.4973,VALID,0,VALID,22.8368,VALID,37,VALID,0.417188,
2008-04-04, 01:54:04,VALID,1008.9,VALID,0,VALID,95.4973,VALID,0,VALID,22.8368,VALID,37,VALID,0.428516,
2008-04-04, 01:55:04,VALID,1008.89,VALID,0,VALID,95.4897,VALID,0,VALID,22.8368,VALID,38,VALID,0.371875,
2008-04-04, 01:56:04,VALID,1008.88,VALID,0,VALID,95.4668,VALID,0,VALID,22.8368,VALID,38,VALID,0.371875,
2008-04-04, 01:57:04,VALID,1008.85,VALID,0,VALID,95.4439,VALID,0,VALID,22.8385,VALID,40,VALID,0.353906,
2008-04-04, 01:58:04,VALID,1008.83,VALID,0,VALID,95.4363,VALID,0,VALID,22.819,VALID,40,VALID,0.228906,
2008-04-04, 01:59:04,VALID,1008.81,VALID,0,VALID,95.4134,VALID,0,VALID,22.7978,VALID,40,VALID,0.299219,
2008-04-04, 02:00:04,VALID,1008.81,VALID,0,VALID,95.4668,VALID,0,VALID,22.7783,VALID,44,VALID,0.526953,
2008-04-04, 02:01:04,VALID,1008.81,VALID,0,VALID,95.4439,VALID,0,VALID,22.78,VALID,61,VALID,0.324219,
2008-04-04, 02:02:04,VALID,1008.78,VALID,0,VALID,95.4439,VALID,0,VALID,22.78,VALID,61,VALID,0.542969,
2008-04-04, 02:03:04,VALID,1008.78,VALID,0,VALID,95.4668,VALID,0,VALID,22.7606,VALID,61,VALID,0.392969,
2008-04-04, 02:04:04,VALID,1008.8,VALID,0,VALID,95.5049,VALID,0,VALID,22.7394,VALID,49,VALID,0.495703,
2008-04-04, 02:05:04,VALID,1008.8,VALID,0,VALID,95.4744,VALID,0,VALID,22.7394,VALID,47,VALID,0.358203,
2008-04-04, 02:06:04,VALID,1008.77,VALID,0,VALID,95.4592,VALID,0,VALID,22.7199,VALID,47,VALID,0.389062,
2008-04-04, 02:07:04,VALID,1008.74,VALID,0,VALID,95.4211,VALID,0,VALID,22.7004,VALID,47,VALID,0.429688,
2008-04-04, 02:08:04,VALID,1008.73,VALID,0,VALID,95.5507,VALID,0,VALID,22.7411,VALID,50,VALID,0.564453,
2008-04-04, 02:09:04,VALID,1008.71,VALID,0,VALID,95.5049,VALID,0,VALID,22.7411,VALID,49,VALID,0.409766,
2008-04-04, 02:10:04,VALID,1008.69,VALID,0,VALID,95.4821,VALID,0,VALID,22.7216,VALID,49,VALID,0.338672,
2008-04-04, 02:11:04,VALID,1008.67,VALID,0,VALID,95.3753,VALID,0,VALID,22.6809,VALID,49,VALID,0.259375,
2008-04-04, 02:12:04,VALID,1008.7,VALID,0,VALID,95.3524,VALID,0,VALID,22.642,VALID,49,VALID,0.0410156,
2008-04-04, 02:13:04,VALID,1008.7,VALID,0,VALID,95.5126,VALID,0,VALID,22.6826,VALID,49,VALID,0.258203,
2008-04-04, 02:14:04,VALID,1008.7,VALID,0,VALID,95.5659,VALID,0,VALID,22.6826,VALID,49,VALID,0.207031,
2008-04-04, 02:15:04,VALID,1008.68,VALID,0,VALID,95.5354,VALID,0,VALID,22.6632,VALID,49,VALID,0.439453,
2008-04-04, 02:16:04,VALID,1008.71,VALID,0,VALID,95.5964,VALID,0,VALID,22.6632,VALID,58,VALID,0.483203,
2008-04-04, 02:17:04,VALID,1008.71,VALID,0,VALID,95.5583,VALID,0,VALID,22.6437,VALID,56,VALID,0.539063,
2008-04-04, 02:18:04,VALID,1008.71,VALID,0,VALID,95.6041,VALID,0,VALID,22.6225,VALID,56,VALID,0.549609,
2008-04-04, 02:19:04,VALID,1008.7,VALID,0,VALID,95.6346,VALID,0,VALID,22.6437,VALID,56,VALID,0.390234,
2008-04-04, 02:20:04,VALID,1008.7,VALID,0,VALID,95.6269,VALID,0,VALID,22.603,VALID,56,VALID,0.392969,
2008-04-04, 02:21:04,VALID,1008.72,VALID,0,VALID,95.6956,VALID,0,VALID,22.6225,VALID,57,VALID,0.442578,
2008-04-04, 02:22:04,VALID,1008.72,VALID,0,VALID,95.6651,VALID,0,VALID,22.6437,VALID,79,VALID,0.471094,
2008-04-04, 02:23:04,VALID,1008.7,VALID,0,VALID,95.7642,VALID,0,VALID,22.6225,VALID,82,VALID,0.799609,
2008-04-04, 02:24:04,VALID,1008.72,VALID,0,VALID,95.81,VALID,0,VALID,22.6632,VALID,81,VALID,0.901563,
2008-04-04, 02:25:04,VALID,1008.71,VALID,0,VALID,95.8481,VALID,0,VALID,22.7021,VALID,87,VALID,1.16641,
2008-04-04, 02:26:04,VALID,1008.69,VALID,0,VALID,95.8328,VALID,0,VALID,22.7021,VALID,86,VALID,0.839844,
2008-04-04, 02:27:04,VALID,1008.69,VALID,0,VALID,95.9015,VALID,0,VALID,22.7411,VALID,99,VALID,1.30664,
2008-04-04, 02:28:04,VALID,1008.65,VALID,0,VALID,95.871,VALID,0,VALID,22.7411,VALID,103,VALID,0.751953,
2008-04-04, 02:29:04,VALID,1008.66,VALID,0,VALID,95.8252,VALID,0,VALID,22.7394,VALID,97,VALID,0.947656,
2008-04-04, 02:30:04,VALID,1008.65,VALID,0,VALID,95.8023,VALID,0,VALID,22.78,VALID,99,VALID,0.54375,
2008-04-04, 02:31:04,VALID,1008.66,VALID,0,VALID,95.7642,VALID,0,VALID,22.7606,VALID,61,VALID,0.757031,
2008-04-04, 02:32:04,VALID,1008.64,VALID,0,VALID,95.7261,VALID,0,VALID,22.7394,VALID,27,VALID,0.550781,
2008-04-04, 02:33:04,VALID,1008.61,VALID,0,VALID,95.6803,VALID,0,VALID,22.7606,VALID,24,VALID,0.573047,
2008-04-04, 02:34:04,VALID,1008.6,VALID,0,VALID,95.5964,VALID,0,VALID,22.7216,VALID,18,VALID,0.578516,
2008-04-04, 02:35:04,VALID,1008.6,VALID,0,VALID,95.6574,VALID,0,VALID,22.7216,VALID,23,VALID,0.400391,
2008-04-04, 02:36:04,VALID,1008.62,VALID,0,VALID,95.6727,VALID,0,VALID,22.7021,VALID,13,VALID,0.437891,
2008-04-04, 02:37:04,VALID,1008.61,VALID,0,VALID,95.6651,VALID,0,VALID,22.6614,VALID,13,VALID,0.258984,
2008-04-04, 02:38:04,VALID,1008.58,VALID,0,VALID,95.6422,VALID,0,VALID,22.6614,VALID,13,VALID,0.155078,
2008-04-04, 02:39:04,VALID,1008.62,VALID,0,VALID,95.6498,VALID,0,VALID,22.6614,VALID,12,VALID,0.0902344,
2008-04-04, 02:40:04,VALID,1008.64,VALID,0,VALID,95.6956,VALID,0,VALID,22.6632,VALID,11,VALID,0.101563,
2008-04-04, 02:41:04,VALID,1008.62,VALID,0,VALID,95.7108,VALID,0,VALID,22.6632,VALID,11,VALID,0.276563,
2008-04-04, 02:42:04,VALID,1008.64,VALID,0,VALID,95.7185,VALID,0,VALID,22.6632,VALID,11,VALID,0.198047,
2008-04-04, 02:43:04,VALID,1008.65,VALID,0,VALID,95.7032,VALID,0,VALID,22.6437,VALID,11,VALID,0.0691406,
2008-04-04, 02:44:04,VALID,1008.66,VALID,0,VALID,95.6574,VALID,0,VALID,22.6437,VALID,11,VALID,0.29375,
2008-04-04, 02:45:04,VALID,1008.66,VALID,0,VALID,95.7261,VALID,0,VALID,22.6614,VALID,11,VALID,0.245703,
2008-04-04, 02:46:04,VALID,1008.68,VALID,0,VALID,95.5964,VALID,0,VALID,22.6047,VALID,11,VALID,0.361719,
2008-04-04, 02:47:04,VALID,1008.74,VALID,0,VALID,95.5126,VALID,0,VALID,22.5463,VALID,11,VALID,0.326562,
2008-04-04, 02:48:04,VALID,1008.73,VALID,0,VALID,95.6956,VALID,0,VALID,22.5446,VALID,11,VALID,0.325,
2008-04-04, 02:49:04,VALID,1008.75,VALID,0,VALID,95.7185,VALID,0,VALID,22.5446,VALID,11,VALID,0.400391,
2008-04-04, 02:50:04,VALID,1008.78,VALID,0,VALID,95.7261,VALID,0,VALID,22.5852,VALID,9,VALID,0.394531,
2008-04-04, 02:51:04,VALID,1008.84,VALID,0,VALID,95.7795,VALID,0,VALID,22.5463,VALID,355,VALID,0.332422,
2008-04-04, 02:52:04,VALID,1008.88,VALID,0,VALID,95.8939,VALID,0,VALID,22.5852,VALID,354,VALID,0.212891,
2008-04-04, 02:53:04,VALID,1008.9,VALID,0,VALID,95.9091,VALID,0,VALID,22.5852,VALID,350,VALID,0.303125,
2008-04-04, 02:54:04,VALID,1008.93,VALID,0,VALID,95.8633,VALID,0,VALID,22.5852,VALID,350,VALID,0.229297,
2008-04-04, 02:55:04,VALID,1008.9,VALID,0,VALID,95.9091,VALID,0,VALID,22.5835,VALID,350,VALID,0.109375,
2008-04-04, 02:56:04,VALID,1008.94,VALID,0,VALID,95.7795,VALID,0,VALID,22.5658,VALID,350,VALID,0.0476562,
2008-04-04, 02:57:04,VALID,1008.92,VALID,0,VALID,95.81,VALID,0,VALID,22.5446,VALID,350,VALID,0.213672,
2008-04-04, 02:58:04,VALID,1008.93,VALID,0,VALID,95.6041,VALID,0,VALID,22.5073,VALID,350,VALID,0.272266,
2008-04-04, 02:59:04,VALID,1008.91,VALID,0,VALID,95.6117,VALID,0,VALID,22.4277,VALID,350,VALID,0.328125,
2008-04-04, 03:00:04,VALID,1008.89,VALID,0,VALID,95.6574,VALID,0,VALID,22.4489,VALID,350,VALID,0.407031,
2008-04-04, 03:01:04,VALID,1008.87,VALID,0,VALID,95.6956,VALID,0,VALID,22.4294,VALID,350,VALID,0.345703,
2008-04-04, 03:02:04,VALID,1008.84,VALID,0,VALID,95.9091,VALID,0,VALID,22.4082,VALID,350,VALID,0.539453,
2008-04-04, 03:03:04,VALID,1008.82,VALID,0,VALID,96.0387,VALID,0,VALID,22.4684,VALID,5,VALID,0.422656,
2008-04-04, 03:04:04,VALID,1008.82,VALID,0,VALID,95.9701,VALID,0,VALID,22.4878,VALID,5,VALID,0.208203,
2008-04-04, 03:05:04,VALID,1008.8,VALID,0,VALID,95.9549,VALID,0,VALID,22.4878,VALID,5,VALID,0.222656,
2008-04-04, 03:06:04,VALID,1008.81,VALID,0,VALID,95.9396,VALID,0,VALID,22.4684,VALID,5,VALID,0.009375,
2008-04-04, 03:07:04,VALID,1008.78,VALID,0,VALID,95.9015,VALID,0,VALID,22.4489,VALID,5,VALID,0,
2008-04-04, 03:08:04,VALID,1008.78,VALID,0,VALID,95.8862,VALID,0,VALID,22.4082,VALID,7,VALID,0.0703125,
2008-04-04, 03:09:04,VALID,1008.76,VALID,0,VALID,95.8786,VALID,0,VALID,22.4099,VALID,11,VALID,0.153906,
2008-04-04, 03:10:04,VALID,1008.78,VALID,0,VALID,95.9396,VALID,0,VALID,22.3904,VALID,11,VALID,0.277344,
2008-04-04, 03:11:04,VALID,1008.8,VALID,0,VALID,95.9167,VALID,0,VALID,22.3904,VALID,11,VALID,0.280469,
2008-04-04, 03:12:04,VALID,1008.79,VALID,0,VALID,95.993,VALID,0,VALID,22.3693,VALID,23,VALID,0.360938,
2008-04-04, 03:13:04,VALID,1008.79,VALID,0,VALID,96.0311,VALID,0,VALID,22.3904,VALID,48,VALID,0.381641,
2008-04-04, 03:14:04,VALID,1008.78,VALID,0,VALID,96.0082,VALID,0,VALID,22.3904,VALID,52,VALID,0.265234,
2008-04-04, 03:15:04,VALID,1008.75,VALID,0,VALID,95.9625,VALID,0,VALID,22.3498,VALID,52,VALID,0.299609,
2008-04-04, 03:16:04,VALID,1008.74,VALID,0,VALID,96.0311,VALID,0,VALID,22.371,VALID,52,VALID,0.438281,
2008-04-04, 03:17:04,VALID,1008.74,VALID,0,VALID,96.054,VALID,0,VALID,22.3904,VALID,52,VALID,0.382031,
2008-04-04, 03:18:04,VALID,1008.7,VALID,0,VALID,96.0769,VALID,0,VALID,22.371,VALID,52,VALID,0.472656,
2008-04-04, 03:19:04,VALID,1008.71,VALID,0,VALID,96.0464,VALID,0,VALID,22.371,VALID,52,VALID,0.223828,
2008-04-04, 03:20:04,VALID,1008.67,VALID,0,VALID,96.054,VALID,0,VALID,22.371,VALID,53,VALID,0.416797,
2008-04-04, 03:21:04,VALID,1008.67,VALID,0,VALID,96.0387,VALID,0,VALID,22.3515,VALID,62,VALID,0.358984,
2008-04-04, 03:22:04,VALID,1008.7,VALID,0,VALID,96.1226,VALID,0,VALID,22.3303,VALID,67,VALID,0.691406,
2008-04-04, 03:23:04,VALID,1008.68,VALID,0,VALID,96.1379,VALID,0,VALID,22.3498,VALID,67,VALID,0.426953,
2008-04-04, 03:24:04,VALID,1008.67,VALID,0,VALID,96.176,VALID,0,VALID,22.371,VALID,67,VALID,0.508594,
2008-04-04, 03:25:04,VALID,1008.7,VALID,0,VALID,96.1684,VALID,0,VALID,22.3904,VALID,67,VALID,0.328906,
2008-04-04, 03:26:04,VALID,1008.72,VALID,0,VALID,96.1455,VALID,0,VALID,22.3693,VALID,71,VALID,0.207422,
2008-04-04, 03:27:04,VALID,1008.71,VALID,0,VALID,96.1684,VALID,0,VALID,22.3904,VALID,82,VALID,0.444141,
2008-04-04, 03:28:04,VALID,1008.72,VALID,0,VALID,96.1531,VALID,0,VALID,22.3887,VALID,82,VALID,0.24375,
2008-04-04, 03:29:04,VALID,1008.73,VALID,0,VALID,96.1302,VALID,0,VALID,22.3887,VALID,83,VALID,0.4625,
2008-04-04, 03:30:04,VALID,1008.73,VALID,0,VALID,96.1302,VALID,0,VALID,22.3887,VALID,81,VALID,0.434375,
2008-04-04, 03:31:04,VALID,1008.75,VALID,0,VALID,96.1989,VALID,0,VALID,22.3887,VALID,82,VALID,0.428516,
2008-04-04, 03:32:04,VALID,1008.77,VALID,0,VALID,96.176,VALID,0,VALID,22.4082,VALID,123,VALID,0.212891,
2008-04-04, 03:33:04,VALID,1008.79,VALID,0,VALID,96.1531,VALID,0,VALID,22.3887,VALID,177,VALID,0.495313,
2008-04-04, 03:34:04,VALID,1008.75,VALID,0,VALID,96.054,VALID,0,VALID,22.3498,VALID,190,VALID,0.557031,
2008-04-04, 03:35:04,VALID,1008.78,VALID,0,VALID,96.054,VALID,0,VALID,22.3303,VALID,185,VALID,0.397266,
2008-04-04, 03:36:04,VALID,1008.78,VALID,0,VALID,95.9777,VALID,0,VALID,22.2914,VALID,180,VALID,0.472266,
2008-04-04, 03:37:04,VALID,1008.79,VALID,0,VALID,96.0311,VALID,0,VALID,22.3125,VALID,163,VALID,0.417969,
2008-04-04, 03:38:04,VALID,1008.8,VALID,0,VALID,96.0464,VALID,0,VALID,22.2914,VALID,163,VALID,0.385547,
2008-04-04, 03:39:04,VALID,1008.79,VALID,0,VALID,96.054,VALID,0,VALID,22.293,VALID,162,VALID,0.499609,
2008-04-04, 03:40:04,VALID,1008.8,VALID,0,VALID,96.0921,VALID,0,VALID,22.293,VALID,144,VALID,0.591016,
2008-04-04, 03:41:04,VALID,1008.8,VALID,0,VALID,96.0997,VALID,0.105969,VALID,22.2914,VALID,145,VALID,0.684375,
2008-04-04, 03:42:04,VALID,1008.79,VALID,0,VALID,96.115,VALID,0.105969,VALID,22.2702,VALID,145,VALID,0.572656,
2008-04-04, 03:43:04,VALID,1008.77,VALID,0,VALID,96.2065,VALID,0.105969,VALID,22.2897,VALID,116,VALID,0.667969,
2008-04-04, 03:44:04,VALID,1008.77,VALID,0,VALID,96.1608,VALID,0.105969,VALID,22.3091,VALID,134,VALID,0.362109,
2008-04-04, 03:45:04,VALID,1008.79,VALID,0,VALID,96.1836,VALID,0.105969,VALID,22.3091,VALID,127,VALID,0.476953,